{"data":{"norad_id":55639,"intl_designator":"2023-021M","name":"STARLINK-5508","alt_names":[],"object_type":"PAYLOAD","status":"ACTIVE","operator":null,"country":"US","launch_date":"2023-02-17","launch_site_code":"AFWTR","launch_vehicle":null,"mission":null,"orbit_class":"UNKNOWN","rcs_meters":null,"size_class":null,"mass_kg":null,"dimensions":null,"purposes":["comms"],"wikipedia_slug":null,"has_3d_model":false,"image_url":null,"decayed_at":null,"tle_current":{"epoch":"2026-05-25T00:13:04.228608Z","epoch_age_seconds":84827,"freshness":"FRESH","line1":"1 55639U 23021M   26145.00907672 -.00001344  00000+0 -10490-3 0  9995","line2":"2 55639  69.9992 352.0152 0002747 280.9971  79.0879 14.98318892180224","mean_motion":14.98318892,"eccentricity":0.0002747,"inclination_deg":69.9992,"raan_deg":352.0152,"arg_perigee_deg":280.9971,"mean_anomaly_deg":79.0879,"bstar":-0.0001049,"rev_number":18022,"period_min":96.107711628587,"perigee_km":570.18101430703,"apogee_km":573.99946915364,"semimajor_km":6950.2272417303,"source":"CELESTRAK","updated_at":"2026-05-25T13:38:17.849012Z"}}}